Other Surface Observations
Issued by NWS Jacksonville, FL

Home | Current Version | Previous Version | Text Only | Print | Product List | Glossary On
Versions: 1 2 3 4 5 6 7 8 9 10 11 12 13 14 15 16 17 18 19 20 21 22 23 24 25 26 27 28 29 30 31 32 33 34 35 36 37 38 39 40 41 42 43 44 45 46 47 48 49 50
000
SXUS52 KJAX 221913
OSOJAX
OTHER SURFACE OBSERVATIONS
NATIONAL WEATHER SERVICE JACKSONVILLE FL
200 PM EST THU FEB 22 2018

FLZ020>025-030>033-035>038-040-222000-
...FLORIDA...

CITY           SKY/WX    TMP DP  RH WIND       PRES   REMARKS
CECIL FIELD    PTSUNNY   82  64  54 SE12      30.39F
HERLONG FIELD  NOT AVBL
FERNANDINA BCH NOT AVBL
LAKE CITY      FAIR      79  59  50 SE6       30.38F
JUNIPER SPGS   NOT AVBL
BUNNELL        NOT AVBL
KEYSTONE HGTS  FAIR      81  55  41 E5        30.38F
$$

GAZ132>136-149>154-162>166-222000-
...GEORGIA...

CITY           SKY/WX    TMP DP  RH WIND       PRES   REMARKS
JESUP          FAIR      82  55  39 CALM      30.41F
HOMERVILLE     MOCLDY    82  59  44 E5        30.40F
SWAINSBORO     CLOUDY    77  63  61 CALM      30.44F
CORDELE        NOT AVBL
EASTMAN        CLOUDY    78  54  42 CALM      30.45F
$$

PLEASE NOTE:  THESE OBSERVATIONS ARE NOT QUALITY CONTROLLED AND MAY
NOT BE AVAILABLE AT ALL TIMES.
$$



USA.gov is the U.S. government's official web portal to all federal, state and local government web resources and services.